Louisville, KY

5:06 PM EDT on July 24, 2016 (GMT -0400)
Bowman

Weather History for KLOU - January, 2003

Change the Weather History Date:

Wednesday, January 1, 2003

  Actual Average Record
Temperature  
Mean Temperature 40 °F 35 °F  
Max Temperature 46 °F 43 °F 72 °F (1952)
Min Temperature 34 °F 27 °F -2 °F (1968)
Degree Days  
Heating Degree Days 24 30  
Month to date heating degree days 30  
Since 1 July heating degree days 1694  
Cooling Degree Days 0 0  
Month to date cooling degree days 0  
Year to date cooling degree days 0  
Moisture  
Dew Point 38 °F    
Average Humidity 95    
Maximum Humidity 100    
Minimum Humidity 86    
Precipitation  
Precipitation 0.61 in 0.14 in 2.56 in (1966)
Month to date precipitation 0.14  
Year to date precipitation 0.14  
Sea Level Pressure  
Sea Level Pressure 29.78 in    
Wind  
Wind Speed 8 mph (NNE)    
Max Wind Speed 13 mph    
Max Gust Speed 18 mph    
Visibility 6 miles    
Events Rain    
T = Trace of Precipitation, MM = Missing Value Source: NWS Daily Summary

Daily Weather History Graph

Daily Weather History Graph

Search for Another Location

Airport or City:

Trip Planner

Search our weather history database for the weather conditions in past years. The results will help you decide how hot, cold, wet, or windy it might be!

Date:

Astronomy

Jan. 01, 2003 Rise Set
Actual Time 7:59 AM EST 5:33 PM EST
Civil Twilight 7:29 AM EST 6:02 PM EST
Nautical Twilight 6:56 AM EST 6:35 PM EST
Astronomical Twilight 6:24 AM EST 7:07 PM EST
Moon 6:54 AM EST (1/1) 4:23 PM EST (1/1)
Length of Visible Light 10h 32m
Length of Day
9h 33m
Waning Crescent, 2% of the Moon is Illuminated
Jan 1
Waning Crescent
Jan 2
New
Jan 10
First Quarter
Jan 18
Full
Jan 25
Last Quarter

Hourly Weather History & Observations

Time (EST) Temp. Windchill Dew Point Humidity Pressure Visibility Wind Dir Wind Speed Gust Speed Precip Events Conditions
12:53 AM 46.9 °F - 46.0 °F 97% 29.74 in 6.0 mi NNE 8.1 mph - 0.05 in Rain Rain
1:53 AM 46.9 °F - 46.0 °F 97% 29.73 in 4.0 mi NE 10.4 mph - 0.06 in Rain Light Rain
2:53 AM 46.0 °F 41.4 °F 45.0 °F 96% 29.72 in 5.0 mi NNE 9.2 mph - 0.11 in Rain Light Rain
3:21 AM 46.4 °F 43.5 °F 44.6 °F 93% 29.71 in 6.0 mi NNE 5.8 mph - 0.05 in Rain Rain
3:43 AM 46.4 °F 42.9 °F 44.6 °F 93% 29.71 in 4.0 mi NNE 6.9 mph - 0.11 in Rain Rain
3:53 AM 46.0 °F 43.9 °F 45.0 °F 96% 29.71 in 6.0 mi NNE 4.6 mph - 0.12 in Rain Rain
4:00 AM 44.6 °F 42.2 °F 44.6 °F 100% 29.71 in 6.0 mi North 4.6 mph - 0.01 in Rain Rain
4:07 AM 44.6 °F 42.2 °F 44.6 °F 100% 29.71 in 6.0 mi North 4.6 mph - 0.02 in Rain Light Rain
4:38 AM 44.6 °F 40.7 °F 42.8 °F 93% 29.70 in 6.0 mi NNE 6.9 mph - 0.06 in Rain Rain
4:53 AM 44.1 °F 39.0 °F 43.0 °F 96% 29.71 in 6.0 mi North 9.2 mph - 0.09 in Rain Rain
5:21 AM 42.8 °F 37.0 °F 42.8 °F 100% 29.69 in 6.0 mi North 10.4 mph - 0.05 in Rain Rain
5:53 AM 42.1 °F 37.1 °F 42.1 °F 100% 29.69 in 7.0 mi North 8.1 mph - 0.10 in Rain Rain
6:37 AM 42.8 °F 37.0 °F 41.0 °F 93% 29.68 in 7.0 mi NE 10.4 mph - 0.07 in Rain Rain
6:53 AM 41.0 °F 35.2 °F 39.9 °F 96% 29.69 in 7.0 mi NNE 9.2 mph 17.3 mph 0.08 in Rain Light Rain
7:01 AM 41.0 °F 33.9 °F 39.2 °F 93% 29.68 in 10.0 mi NNE 12.7 mph 18.4 mph 0.00 in Rain Light Rain
7:53 AM 39.9 °F 32.9 °F 39.0 °F 97% 29.70 in 10.0 mi NE 11.5 mph - 0.00 in   Overcast
8:53 AM 39.0 °F 32.3 °F 37.0 °F 93% 29.73 in 10.0 mi North 10.4 mph - N/A   Overcast
9:53 AM 39.0 °F 33.4 °F 37.0 °F 93% 29.76 in 4.0 mi NNE 8.1 mph - 0.00 in   Overcast
10:07 AM 37.4 °F 30.8 °F 37.4 °F 100% 29.76 in 1.0 mi NE 9.2 mph 17.3 mph N/A   Overcast
10:24 AM 37.4 °F 30.3 °F 37.4 °F 100% 29.76 in 1.0 mi NNE 10.4 mph 18.4 mph 0.00 in Rain Light Rain
10:53 AM 37.9 °F 33.5 °F 37.0 °F 97% 29.77 in 1.0 mi NNE 5.8 mph - 0.00 in   Overcast
11:00 AM 37.4 °F 32.1 °F 37.4 °F 100% 29.77 in 1.0 mi NNE 6.9 mph - N/A   Overcast
11:53 AM 37.9 °F 30.5 °F 37.0 °F 97% 29.76 in 2.5 mi North 11.5 mph - N/A   Overcast
12:22 PM 37.4 °F 30.3 °F 35.6 °F 93% 29.75 in 2.5 mi NNE 10.4 mph 18.4 mph N/A   Overcast
12:35 PM 37.4 °F 30.3 °F 37.4 °F 100% 29.75 in 2.5 mi NNE 10.4 mph - N/A   Overcast
12:45 PM 37.4 °F 29.8 °F 35.6 °F 93% 29.75 in 2.5 mi NNE 11.5 mph - N/A   Overcast
12:53 PM 37.9 °F 30.5 °F 36.0 °F 93% 29.76 in 5.0 mi NNE 11.5 mph 16.1 mph N/A   Overcast
1:00 PM 37.4 °F 32.1 °F 35.6 °F 93% 29.75 in 6.0 mi NNE 6.9 mph 16.1 mph N/A   Overcast
1:53 PM 37.9 °F 31.5 °F 36.0 °F 93% 29.76 in 10.0 mi NNE 9.2 mph - N/A   Overcast
2:53 PM 37.9 °F 32.7 °F 36.0 °F 93% 29.78 in 10.0 mi Variable 6.9 mph - N/A   Overcast
3:53 PM 37.0 °F 31.0 °F 36.0 °F 96% 29.81 in 6.0 mi NNW 8.1 mph - N/A   Overcast
4:06 PM 37.4 °F 32.1 °F 35.6 °F 93% 29.82 in 10.0 mi North 6.9 mph - N/A   Overcast
4:53 PM 37.9 °F 32.7 °F 34.0 °F 86% 29.83 in 10.0 mi NNE 6.9 mph - N/A   Overcast
5:53 PM 37.9 °F 31.5 °F 35.1 °F 89% 29.85 in 10.0 mi NNE 9.2 mph - N/A   Overcast
6:53 PM 37.0 °F 31.6 °F 36.0 °F 96% 29.86 in 10.0 mi NNE 6.9 mph - N/A   Overcast
7:11 PM 37.4 °F 32.1 °F 35.6 °F 93% 29.86 in 10.0 mi North 6.9 mph - N/A   Overcast
7:53 PM 37.0 °F 31.0 °F 35.1 °F 93% 29.91 in 10.0 mi North 8.1 mph - N/A   Overcast
8:04 PM 37.4 °F 32.1 °F 33.8 °F 87% 29.89 in 10.0 mi North 6.9 mph - N/A   Overcast
8:53 PM 37.0 °F 33.3 °F 34.0 °F 89% 29.90 in 10.0 mi NNE 4.6 mph - N/A   Overcast
9:53 PM 36.0 °F 29.6 °F 33.1 °F 89% 29.94 in 9.0 mi North 8.1 mph - N/A   Overcast
10:53 PM 35.1 °F 28.6 °F 33.1 °F 92% 29.94 in 4.0 mi NNE 8.1 mph - 0.00 in   Light Drizzle
11:34 PM 35.6 °F 28.6 °F 33.8 °F 93% 29.93 in 5.0 mi NE 9.2 mph - 0.00 in   Light Drizzle
11:53 PM 34.0 °F 28.0 °F 32.0 °F 92% 29.92 in 8.0 mi NE 6.9 mph - 0.00 in   Light Drizzle